sat.trackr.live / text

‹ back to catalog

STARLINK-35743

NORAD 66578 · 2025-268X

PAYLOAD ACTIVE UNKNOWN

§ Identity

Operator
Country
US
Launch date
2025-11-21
Launch site
AFETR
Launch vehicle
Mass (kg)
RCS (m²)

Purposes: comms

External: N2YO · Heavens-Above · Gunter

§ Orbital elements

Epoch: 2026-05-25T02:00:43.966944Z

Period
94.27 min
Inclination
43.0013°
Eccentricity
0.0001143
Mean motion
15.27587123 rev/d
Perigee alt
482.2 km
Apogee alt
483.8 km
Semi-major
6,861.2 km
B*
3.7214e-4
RAAN
275.5952°
Arg perigee
259.9383°
Mean anomaly
100.1340°
Rev number
2,964

§ Raw data

STARLINK-357431 66578U 25268X   26145.08384221  .00009994  00000+0  37214-3 0  99912 66578  43.0013 275.5952 0001143 259.9383 100.1340 15.27587123 29649

JSON: /api/v1/satellites/66578 · /tle

For live sub-satellite position, see the globe view (requires WebGL).

§ Visibility from observer

Set your observer location to see the next 7 days of passes ≥ 10°. The values pass through the URL so the page stays shareable.

No JS? Fill the form by hand. The geolocation button needs JavaScript.